Location: Geçitköy
(36.7327°N, 29.8010°E)
Time: 19:03:55
(UTC+00:00)

Cosmos 2181 Rocket - Pass Details

Date: 12 January 2026
Orbit: 952 x 1013 km, 82.9° (Epoch: 10 February)

Event Time Altitude Azimuth Distance (km) Brightness Sun altitude
Rises 15:34:18 0° 161° (SSE) 3,611 7.0 -6.1°
Reaches altitude 10° 15:36:57 10° 153° (SSE) 2,671 6.3 -6.6°
Maximum altitude 15:42:27 37° 88° (E) 1,458 4.5 -7.6°
Drops below altitude 10° 15:48:00 10° 24° (NNE) 2,706 5.9 -8.7°
Sets 15:50:42 0° 16° (NNE) 3,664 6.7 -9.2°
